Cincinnati northern Kentucky International Airport Cincinnati US
ICAO: KCVG
IATA: CVG
Category: Large
Scheduled Services: Yes

Elevation: 896 ft
TransAlt. 18000 ft.

Airport Communications:
APP:119.7
ATIS:134.375
CLNC DEL:127.175
DEP:126.65
GND:121.3
LOUISVILLE RDO:117.3
TWR:118.3
UNICOM:122.95

KCVG Zoom In..

If you have problems with the map follow the link
https://www.worldairports.se/pages/airport.php?
ICAO=KCVG

Runways:

(A) RW 09 length 12000 ft width 150 ft
ILS 111.90 / hdg 94

(B) RW 18C length 11000 ft width 150 ft
ILS 111.55 / hdg 184

(C) RW 18L length 10000 ft width 150 ft
ILS 110.15 / hdg 184

(D) RW 18R length 8000 ft width 150 ft
ILS 110.75 / hdg 184

(E) RW 27 length 12000 ft width 150 ft
ILS 108.70 / hdg 274

(F) RW 36C length 11000 ft width 150 ft
ILS 109.90 / hdg 4

(G) RW 36L length 8000 ft width 150 ft
ILS 110.75 / hdg 4

(H) RW 36R length 10000 ft width 150 ft
ILS 110.35 / hdg 4

Location; KCVG
Day. 19 / Time. 01.52 Zulu
* Altimeter: 29.91
* Temperature: 03° c. 37.4°f.
* Wind from: 280° Speed 23 kn with Gusts up to 29 kn.
Dewpoint: 00° c.
Visibility: 10 Statute Miles.
Clouds: Few 2300 ft.
Clouds: Broken 2900 ft.
Clouds: Overcast 4000 ft.

KCVG 190152Z 28023G29KT 10SM FEW023 BKN029 OVC040 03/00 A2991 RMK AO2 PK WND 27029/0053 SLP130 T00330000 $


Wind From 280°
Speed 23 kn.

 
 
jpsmedia worldairports.se 2020   terms of use